Regional Weather Roundup
Issued by NWS

Home | Current Version | Previous Version | Graphics & Text | Print | Product List | Glossary On
Versions: 1 2 3 4 5 6 7 8 9 10 11 12 13 14 15 16 17 18 19 20 21 22 23 24 25 26 27 28 29 30 31 32 33 34 35 36 37 38 39 40 41 42 43 44 45 46 47 48 49 50
064
ASUS43 KFSD 270102
RWRSD

WEATHER ROUNDUP FOR SOUTH DAKOTA
NATIONAL WEATHER SERVICE SIOUX FALLS SD
800 PM CDT WED APR 26 2017

NOTE: "FAIR" INDICATES FEW OR NO CLOUDS BELOW 12,000 FEET WITH NO
SIGNIFICANT WEATHER AND/OR OBSTRUCTIONS TO VISIBILITY.


SDZ001>005-009-010-012>017-270200-
NORTHWEST AND NORTH CENTRAL SOUTH DAKOTA

CITY           SKY/WX    TMP DP  RH WIND       PRES   REMARKS
BUFFALO          N/A     45  27  49 NE6       29.65F
FAITH            N/A     46  26  45 N10       29.70F
MOBRIDGE       CLEAR     42  25  50 NE12      29.71S
$$

SDZ012>016-024>037-041>051-057-063-072>074-270200-
SOUTHWEST AND SOUTH CENTRAL SOUTH DAKOTA

CITY           SKY/WX    TMP DP  RH WIND       PRES   REMARKS
RAPID CTY ARPT CLOUDY    39  30  70 N9        29.73F
PIERRE         CLEAR     44  28  53 N13       29.69F
CUSTER         CLOUDY    38  32  79 E7        29.68R
ELLSWORTH AFB  CLOUDY    39  31  73 NE7       29.72
PHILIP         CLEAR     46  31  55 W9        29.71F
PINE RIDGE     CLEAR     43  31  62 NE6       29.73R
SPEARFISH      MOCLDY    34  28  80 E5        29.72F WCI  30
WINNER         FAIR      46  29  51 N12       29.70S
$$

SDZ004>011-016>023-039-040-270200-
NORTHEAST SOUTH DAKOTA

CITY           SKY/WX    TMP DP  RH WIND       PRES   REMARKS
ABERDEEN       CLOUDY    31  24  75 N18       29.74F WCI  19
WATERTOWN      CLOUDY    28  24  85 N15       29.67S WCI  16
BROOKINGS      CLOUDY    30  26  85 NW18      29.67S WCI  18
SISSETON         N/A     30  26  85 N21       29.70S WCI  17
$$

SDZ017-020-022-023-036>040-048>070-270200-
SOUTHEAST SOUTH DAKOTA

CITY           SKY/WX    TMP DP  RH WIND       PRES   REMARKS
SIOUX FALLS    CLOUDY    34  27  75 NW18      29.67S WCI  23
HURON          CLOUDY    33  28  81 N17       29.73S WCI  22
CHAMBERLAIN    CLEAR     43  30  61 N9        29.71R
MITCHELL       CLOUDY    36  28  73 N16       29.72F
YANKTON        CLOUDY    37  27  65 NW20      29.68S
$$

ABBREVIATIONS USED IN REMARKS
   TC - TEMPERATURE IN CELSIUS
  WCI - WIND CHILL INDEX
   HX - HEAT INDEX
  VSB - VISIBILITY





USA.gov is the U.S. government's official web portal to all federal, state and local government web resources and services.